• In Österreich
  • Länderverzeichnis
  • Für 7 Tage
  • Wassertemperatur
  • Satellitenkarten
  • Wetterkarte
  • News
  • Widgets
  • user-avatar
    Anmelden

    Stündliche Wetter Yuhanovo

    Heute, 22 September, Samstag

    Zeit Temperatur Niederschläge Wind Luftdruck Luftfeuchtigkeit
    00:00 +18°C° 0 mm 3 m/S 749 mmHg 82%
    01:00 +17°C° 0 mm 3 m/S 748 mmHg 81%
    02:00 +17°C° 0 mm 4 m/S 748 mmHg 79%
    03:00 +17°C° 0 mm 4 m/S 748 mmHg 78%
    04:00 +17°C° 0 mm 4 m/S 747 mmHg 77%
    05:00 +17°C° 0 mm 4 m/S 746 mmHg 75%
    06:00 +16°C° 0 mm 5 m/S 746 mmHg 72%
    07:00 +17°C° 0 mm 5 m/S 745 mmHg 69%
    08:00 +19°C° 0 mm 6 m/S 745 mmHg 65%
    09:00 +20°C° 0 mm 6 m/S 745 mmHg 60%
    10:00 +22°C° 0 mm 6 m/S 745 mmHg 55%
    11:00 +23°C° 0 mm 6 m/S 744 mmHg 50%
    12:00 +22°C° 0.3 mm 6 m/S 745 mmHg 58%
    13:00 +20°C° 0.3 mm 5 m/S 745 mmHg 65%
    14:00 +19°C° 0.3 mm 5 m/S 745 mmHg 73%
    15:00 +17°C° 0.4 mm 4 m/S 745 mmHg 78%
    16:00 +14°C° 0.4 mm 4 m/S 746 mmHg 84%
    17:00 +12°C° 0.4 mm 3 m/S 746 mmHg 90%
    18:00 +11°C° 0.5 mm 3 m/S 746 mmHg 91%
    19:00 +11°C° 0.5 mm 3 m/S 747 mmHg 92%
    20:00 +11°C° 0.5 mm 3 m/S 747 mmHg 93%
    21:00 +11°C° 0.5 mm 3 m/S 747 mmHg 93%
    22:00 +11°C° 0.5 mm 3 m/S 747 mmHg 92%
    23:00 +11°C° 0.5 mm 3 m/S 747 mmHg 91%

    Morgen, 23 September, Sonntag

    Zeit Temperatur Niederschläge Wind Luftdruck Luftfeuchtigkeit
    00:00 +10°C° 0.2 mm 3 m/S 747 mmHg 92%
    01:00 +10°C° 0.2 mm 3 m/S 747 mmHg 93%
    02:00 +10°C° 0.2 mm 2 m/S 747 mmHg 93%
    03:00 +9°C° 0 mm 2 m/S 746 mmHg 94%
    04:00 +9°C° 0 mm 2 m/S 746 mmHg 96%
    05:00 +8°C° 0 mm 2 m/S 746 mmHg 97%
    06:00 +9°C° 0 mm 3 m/S 745 mmHg 94%
    07:00 +9°C° 0 mm 3 m/S 745 mmHg 92%
    08:00 +9°C° 0 mm 3 m/S 745 mmHg 89%
    09:00 +11°C° 0 mm 4 m/S 745 mmHg 82%
    10:00 +12°C° 0 mm 4 m/S 745 mmHg 75%
    11:00 +13°C° 0 mm 5 m/S 745 mmHg 68%
    12:00 +13°C° 0.2 mm 5 m/S 744 mmHg 66%
    13:00 +14°C° 0.2 mm 5 m/S 744 mmHg 63%
    14:00 +14°C° 0.2 mm 5 m/S 744 mmHg 61%
    15:00 +13°C° 0.2 mm 4 m/S 744 mmHg 66%
    16:00 +12°C° 0.2 mm 4 m/S 744 mmHg 71%
    17:00 +11°C° 0.2 mm 3 m/S 744 mmHg 76%
    18:00 +11°C° 0.1 mm 3 m/S 744 mmHg 80%
    19:00 +10°C° 0.1 mm 3 m/S 744 mmHg 84%
    20:00 +9°C° 0.1 mm 3 m/S 744 mmHg 88%
    21:00 +8°C° 0 mm 3 m/S 744 mmHg 89%
    22:00 +8°C° 0 mm 3 m/S 744 mmHg 90%
    23:00 +8°C° 0 mm 3 m/S 744 mmHg 90%

    übermorgen, 24 September, Montag

    Zeit Temperatur Niederschläge Wind Luftdruck Luftfeuchtigkeit
    00:00 +8°C° 0 mm 3 m/S 744 mmHg 92%
    01:00 +7°C° 0 mm 3 m/S 744 mmHg 93%
    02:00 +7°C° 0 mm 3 m/S 744 mmHg 94%
    03:00 +7°C° 0 mm 3 m/S 744 mmHg 95%
    04:00 +6°C° 0 mm 2 m/S 743 mmHg 96%
    05:00 +6°C° 0 mm 2 m/S 743 mmHg 96%
    06:00 +7°C° 0 mm 2 m/S 743 mmHg 94%
    07:00 +7°C° 0 mm 2 m/S 743 mmHg 91%
    08:00 +8°C° 0 mm 2 m/S 743 mmHg 88%
    09:00 +9°C° 0 mm 2 m/S 742 mmHg 85%
    10:00 +11°C° 0 mm 1 m/S 742 mmHg 81%
    11:00 +12°C° 0 mm 1 m/S 741 mmHg 77%
    12:00 +12°C° 0.9 mm 2 m/S 741 mmHg 81%
    13:00 +10°C° 0.9 mm 3 m/S 740 mmHg 85%
    14:00 +10°C° 0.9 mm 3 m/S 739 mmHg 88%
    15:00 +8°C° 1.5 mm 4 m/S 738 mmHg 90%
    16:00 +8°C° 1.5 mm 4 m/S 737 mmHg 91%
    17:00 +7°C° 1.5 mm 4 m/S 737 mmHg 92%
    18:00 +7°C° 1.5 mm 5 m/S 736 mmHg 92%
    19:00 +7°C° 1.5 mm 6 m/S 736 mmHg 92%
    20:00 +7°C° 1.5 mm 6 m/S 735 mmHg 92%
    21:00 +6°C° 1.4 mm 7 m/S 735 mmHg 91%
    22:00 +6°C° 1.4 mm 7 m/S 735 mmHg 91%
    23:00 +6°C° 1.4 mm 8 m/S 735 mmHg 90%

    25 September, Dienstag

    Zeit Temperatur Niederschläge Wind Luftdruck Luftfeuchtigkeit
    00:00 +5°C° 0.9 mm 8 m/S 735 mmHg 89%
    01:00 +5°C° 0.9 mm 8 m/S 736 mmHg 87%
    02:00 +5°C° 0.9 mm 8 m/S 736 mmHg 86%
    03:00 +4°C° 0.3 mm 8 m/S 737 mmHg 86%
    04:00 +4°C° 0.3 mm 8 m/S 738 mmHg 85%
    05:00 +4°C° 0.3 mm 7 m/S 738 mmHg 85%
    06:00 +4°C° 0.1 mm 7 m/S 739 mmHg 83%
    07:00 +4°C° 0.1 mm 7 m/S 740 mmHg 82%
    08:00 +4°C° 0.1 mm 7 m/S 740 mmHg 81%
    09:00 +5°C° 0.1 mm 7 m/S 741 mmHg 76%
    10:00 +5°C° 0.1 mm 7 m/S 742 mmHg 71%
    11:00 +6°C° 0.1 mm 7 m/S 743 mmHg 66%
    12:00 +6°C° 0 mm 7 m/S 743 mmHg 62%
    13:00 +8°C° 0 mm 7 m/S 744 mmHg 58%
    14:00 +8°C° 0 mm 7 m/S 744 mmHg 54%
    15:00 +8°C° 0 mm 7 m/S 745 mmHg 56%
    16:00 +7°C° 0 mm 6 m/S 745 mmHg 58%
    17:00 +6°C° 0 mm 5 m/S 746 mmHg 60%
    18:00 +5°C° 0 mm 5 m/S 746 mmHg 62%
    19:00 +5°C° 0 mm 4 m/S 746 mmHg 63%
    20:00 +4°C° 0 mm 4 m/S 747 mmHg 65%
    21:00 +3°C° 0 mm 4 m/S 747 mmHg 68%
    22:00 +2°C° 0 mm 3 m/S 747 mmHg 70%
    23:00 +2°C° 0 mm 3 m/S 747 mmHg 73%

    26 September, Mittwoch

    Zeit Temperatur Niederschläge Wind Luftdruck Luftfeuchtigkeit
    00:00 +2°C° 0 mm 2 m/S 747 mmHg 77%
    01:00 +2°C° 0 mm 2 m/S 747 mmHg 82%
    02:00 +2°C° 0 mm 2 m/S 747 mmHg 87%
    03:00 +3°C° 0 mm 1 m/S 747 mmHg 88%
    04:00 +3°C° 0 mm 1 m/S 747 mmHg 90%
    05:00 +3°C° 0 mm 1 m/S 747 mmHg 91%
    06:00 +3°C° 0 mm 1 m/S 748 mmHg 86%
    07:00 +4°C° 0 mm 1 m/S 748 mmHg 81%
    08:00 +5°C° 0 mm 1 m/S 749 mmHg 76%
    09:00 +6°C° 0 mm 2 m/S 750 mmHg 67%
    10:00 +7°C° 0 mm 2 m/S 750 mmHg 58%
    11:00 +8°C° 0 mm 2 m/S 751 mmHg 49%
    12:00 +9°C° 0 mm 3 m/S 751 mmHg 47%
    13:00 +10°C° 0 mm 3 m/S 752 mmHg 44%
    14:00 +10°C° 0 mm 3 m/S 752 mmHg 42%
    15:00 +9°C° 0 mm 2 m/S 753 mmHg 48%
    16:00 +8°C° 0 mm 2 m/S 753 mmHg 53%
    17:00 +8°C° 0 mm 1 m/S 753 mmHg 59%
    18:00 +7°C° 0 mm 1 m/S 753 mmHg 62%
    19:00 +6°C° 0 mm 1 m/S 754 mmHg 66%
    20:00 +5°C° 0 mm 1 m/S 754 mmHg 69%
    21:00 +5°C° 0 mm 1 m/S 754 mmHg 73%
    22:00 +4°C° 0 mm 2 m/S 754 mmHg 77%
    23:00 +4°C° 0 mm 2 m/S 754 mmHg 81%

    27 September, Donnerstag

    Zeit Temperatur Niederschläge Wind Luftdruck Luftfeuchtigkeit
    00:00 +4°C° 0 mm 2 m/S 754 mmHg 82%
    01:00 +4°C° 0 mm 3 m/S 753 mmHg 84%
    02:00 +4°C° 0 mm 3 m/S 753 mmHg 85%
    03:00 +5°C° 0 mm 4 m/S 752 mmHg 83%
    04:00 +5°C° 0 mm 4 m/S 752 mmHg 81%
    05:00 +6°C° 0 mm 5 m/S 751 mmHg 78%
    06:00 +6°C° 0.4 mm 5 m/S 750 mmHg 81%
    07:00 +5°C° 0.4 mm 6 m/S 749 mmHg 83%
    08:00 +5°C° 0.4 mm 6 m/S 748 mmHg 86%
    09:00 +6°C° 1.8 mm 7 m/S 748 mmHg 88%
    10:00 +6°C° 1.8 mm 7 m/S 747 mmHg 89%
    11:00 +8°C° 1.8 mm 7 m/S 746 mmHg 91%
    12:00 +8°C° 1.3 mm 7 m/S 746 mmHg 91%
    13:00 +8°C° 1.3 mm 7 m/S 745 mmHg 91%
    14:00 +9°C° 1.3 mm 7 m/S 745 mmHg 91%
    15:00 +9°C° 0.7 mm 7 m/S 744 mmHg 91%
    16:00 +9°C° 0.7 mm 7 m/S 744 mmHg 91%
    17:00 +9°C° 0.7 mm 7 m/S 743 mmHg 91%
    18:00 +9°C° 0.2 mm 7 m/S 743 mmHg 91%
    19:00 +9°C° 0.2 mm 7 m/S 743 mmHg 91%
    20:00 +9°C° 0.2 mm 7 m/S 743 mmHg 91%
    21:00 +9°C° 0.4 mm 6 m/S 743 mmHg 91%
    22:00 +9°C° 0.4 mm 6 m/S 742 mmHg 91%
    23:00 +9°C° 0.4 mm 6 m/S 742 mmHg 92%
    Mehr zeigen